When you browse on this site, cookies collect data to enhance your experience and personalize the content and advertising you see.
Visit our Privacy Policy to learn more. By continuing to use the site, you agree to this use of cookies and data.
  • In Spain
  • List of Countries
  • For 7 days
  • Water Temperature
  • Weather Map
  • Weather Widgets
  • user-avatar
    Login

    Hourly Weather Shaki

    Today, 8 April, Wednesday

    Time Temperature Precipitation Wind Pressure Humidity
    00:00 +1°C° 0.4 mm 2 mps 748 mmHg 94%
    01:00 +1°C° 0.4 mm 2 mps 747 mmHg 94%
    02:00 +1°C° 0.4 mm 2 mps 747 mmHg 95%
    03:00 +1°C° 0 mm 2 mps 747 mmHg 96%
    04:00 +1°C° 0.1 mm 2 mps 747 mmHg 95%
    05:00 +1°C° 0.1 mm 2 mps 748 mmHg 94%
    06:00 +1°C° 0.1 mm 2 mps 748 mmHg 93%
    07:00 +2°C° 0 mm 2 mps 748 mmHg 90%
    08:00 +1°C° 0 mm 3 mps 748 mmHg 87%
    09:00 +2°C° 0 mm 3 mps 748 mmHg 84%
    10:00 +3°C° 0.1 mm 3 mps 747 mmHg 80%
    11:00 +4°C° 0.1 mm 3 mps 747 mmHg 77%
    12:00 +5°C° 0.1 mm 3 mps 746 mmHg 73%
    13:00 +5°C° 0.1 mm 3 mps 746 mmHg 71%
    14:00 +5°C° 0.1 mm 3 mps 745 mmHg 69%
    15:00 +7°C° 0.1 mm 3 mps 744 mmHg 66%
    16:00 +6°C° 0 mm 2 mps 744 mmHg 69%
    17:00 +6°C° 0 mm 2 mps 744 mmHg 71%
    18:00 +6°C° 0 mm 1 mps 744 mmHg 73%
    19:00 +5°C° 0 mm 1 mps 744 mmHg 74%
    20:00 +5°C° 0 mm 1 mps 744 mmHg 75%
    21:00 +4°C° 0 mm 1 mps 744 mmHg 76%
    22:00 +4°C° 0 mm 1 mps 743 mmHg 76%
    23:00 +4°C° 0 mm 1 mps 743 mmHg 77%

    Tomorrow, 9 April, Thursday

    Time Temperature Precipitation Wind Pressure Humidity
    00:00 +4°C° 0 mm 1 mps 742 mmHg 77%
    01:00 +3°C° 0 mm 1 mps 741 mmHg 77%
    02:00 +3°C° 0 mm 1 mps 740 mmHg 77%
    03:00 +2°C° 0 mm 0 mps 740 mmHg 78%
    04:00 +2°C° 0 mm 0 mps 739 mmHg 77%
    05:00 +1°C° 0 mm 0 mps 739 mmHg 76%
    06:00 +1°C° 0 mm 0 mps 738 mmHg 75%
    07:00 +4°C° 0 mm 1 mps 738 mmHg 70%
    08:00 +6°C° 0 mm 1 mps 737 mmHg 65%
    09:00 +7°C° 0 mm 2 mps 737 mmHg 60%
    10:00 +8°C° 0 mm 2 mps 737 mmHg 58%
    11:00 +9°C° 0 mm 2 mps 736 mmHg 56%
    12:00 +11°C° 0 mm 1 mps 735 mmHg 54%
    13:00 +10°C° 0 mm 2 mps 735 mmHg 53%
    14:00 +12°C° 0 mm 2 mps 735 mmHg 52%
    15:00 +12°C° 0 mm 2 mps 734 mmHg 51%
    16:00 +11°C° 0 mm 1 mps 734 mmHg 56%
    17:00 +10°C° 0 mm 1 mps 734 mmHg 61%
    18:00 +9°C° 0 mm 1 mps 734 mmHg 65%
    19:00 +9°C° 0 mm 1 mps 735 mmHg 66%
    20:00 +8°C° 0 mm 1 mps 735 mmHg 67%
    21:00 +7°C° 0 mm 1 mps 735 mmHg 68%
    22:00 +7°C° 0 mm 1 mps 735 mmHg 70%
    23:00 +6°C° 0 mm 1 mps 735 mmHg 72%

    Day after tomorrow, 10 April, Friday

    Time Temperature Precipitation Wind Pressure Humidity
    00:00 +6°C° 0 mm 1 mps 735 mmHg 74%
    01:00 +6°C° 0 mm 1 mps 735 mmHg 76%
    02:00 +6°C° 0 mm 1 mps 734 mmHg 78%
    03:00 +5°C° 0 mm 0 mps 734 mmHg 80%
    04:00 +6°C° 0 mm 1 mps 734 mmHg 77%
    05:00 +6°C° 0 mm 1 mps 734 mmHg 74%
    06:00 +6°C° 0 mm 1 mps 734 mmHg 72%
    07:00 +8°C° 0 mm 1 mps 734 mmHg 67%
    08:00 +10°C° 0 mm 1 mps 733 mmHg 62%
    09:00 +11°C° 0 mm 1 mps 733 mmHg 57%
    10:00 +12°C° 0 mm 1 mps 733 mmHg 54%
    11:00 +14°C° 0 mm 1 mps 733 mmHg 52%
    12:00 +15°C° 0 mm 1 mps 732 mmHg 50%
    13:00 +15°C° 0 mm 2 mps 732 mmHg 49%
    14:00 +16°C° 0 mm 2 mps 732 mmHg 48%
    15:00 +16°C° 0 mm 2 mps 732 mmHg 46%
    16:00 +15°C° 0 mm 2 mps 732 mmHg 51%
    17:00 +14°C° 0 mm 2 mps 732 mmHg 55%
    18:00 +13°C° 0 mm 1 mps 732 mmHg 60%
    19:00 +12°C° 0 mm 1 mps 732 mmHg 62%
    20:00 +11°C° 0 mm 1 mps 733 mmHg 64%
    21:00 +9°C° 0 mm 2 mps 733 mmHg 65%
    22:00 +9°C° 0 mm 2 mps 733 mmHg 69%
    23:00 +8°C° 0 mm 2 mps 733 mmHg 72%

    11 April, Saturday

    Time Temperature Precipitation Wind Pressure Humidity
    00:00 +8°C° 0 mm 2 mps 733 mmHg 75%
    01:00 +9°C° 0 mm 1 mps 732 mmHg 76%
    02:00 +9°C° 0 mm 1 mps 732 mmHg 77%
    03:00 +7°C° 0 mm 0 mps 732 mmHg 77%
    04:00 +8°C° 0 mm 0 mps 732 mmHg 77%
    05:00 +8°C° 0 mm 0 mps 732 mmHg 76%
    06:00 +8°C° 0 mm 0 mps 732 mmHg 75%
    07:00 +10°C° 0 mm 1 mps 732 mmHg 72%
    08:00 +11°C° 0 mm 1 mps 732 mmHg 69%
    09:00 +13°C° 0 mm 1 mps 732 mmHg 66%
    10:00 +13°C° 0 mm 2 mps 732 mmHg 63%
    11:00 +13°C° 0 mm 3 mps 732 mmHg 61%
    12:00 +14°C° 0 mm 4 mps 732 mmHg 59%
    13:00 +14°C° 0.1 mm 4 mps 732 mmHg 61%
    14:00 +14°C° 0.1 mm 5 mps 732 mmHg 64%
    15:00 +13°C° 0.1 mm 5 mps 732 mmHg 66%
    16:00 +13°C° 0.2 mm 4 mps 732 mmHg 69%
    17:00 +12°C° 0.2 mm 3 mps 732 mmHg 71%
    18:00 +11°C° 0.2 mm 3 mps 732 mmHg 74%
    19:00 +12°C° 0 mm 2 mps 733 mmHg 74%
    20:00 +12°C° 0 mm 2 mps 733 mmHg 73%
    21:00 +11°C° 0 mm 1 mps 733 mmHg 73%
    22:00 +11°C° 0 mm 1 mps 734 mmHg 73%
    23:00 +11°C° 0 mm 1 mps 734 mmHg 74%

    12 April, Sunday

    Time Temperature Precipitation Wind Pressure Humidity
    00:00 +11°C° 0 mm 1 mps 734 mmHg 74%
    01:00 +11°C° 0.1 mm 1 mps 734 mmHg 76%
    02:00 +10°C° 0.1 mm 1 mps 734 mmHg 79%
    03:00 +10°C° 0.1 mm 1 mps 734 mmHg 81%
    04:00 +10°C° 0.1 mm 1 mps 735 mmHg 81%
    05:00 +10°C° 0.1 mm 1 mps 735 mmHg 82%
    06:00 +10°C° 0.1 mm 1 mps 736 mmHg 82%
    07:00 +11°C° 0.2 mm 1 mps 736 mmHg 80%
    08:00 +10°C° 0.2 mm 2 mps 736 mmHg 78%
    09:00 +12°C° 0.2 mm 2 mps 736 mmHg 77%
    10:00 +12°C° 0.2 mm 2 mps 737 mmHg 75%
    11:00 +12°C° 0.2 mm 3 mps 737 mmHg 74%
    12:00 +12°C° 0.2 mm 3 mps 737 mmHg 73%
    13:00 +13°C° 0.1 mm 4 mps 737 mmHg 71%
    14:00 +13°C° 0.1 mm 5 mps 737 mmHg 70%
    15:00 +13°C° 0.1 mm 5 mps 737 mmHg 69%
    16:00 +12°C° 0 mm 5 mps 738 mmHg 72%
    17:00 +10°C° 0 mm 5 mps 738 mmHg 76%
    18:00 +11°C° 0 mm 4 mps 738 mmHg 79%
    19:00 +10°C° 0.1 mm 4 mps 739 mmHg 81%
    20:00 +10°C° 0.1 mm 4 mps 740 mmHg 82%
    21:00 +8°C° 0.1 mm 4 mps 740 mmHg 84%
    22:00 +8°C° 0.6 mm 5 mps 741 mmHg 83%
    23:00 +8°C° 0.6 mm 5 mps 741 mmHg 81%

    13 April, Monday

    Time Temperature Precipitation Wind Pressure Humidity
    00:00 +7°C° 0.6 mm 6 mps 741 mmHg 79%
    01:00 +7°C° 0.3 mm 5 mps 741 mmHg 80%
    02:00 +7°C° 0.3 mm 4 mps 741 mmHg 82%
    03:00 +8°C° 0.3 mm 3 mps 741 mmHg 83%
    04:00 +8°C° 0.2 mm 3 mps 742 mmHg 82%
    05:00 +7°C° 0.2 mm 3 mps 742 mmHg 81%
    06:00 +7°C° 0.2 mm 3 mps 742 mmHg 80%
    07:00 +7°C° 0.1 mm 4 mps 742 mmHg 78%
    08:00 +7°C° 0.1 mm 4 mps 742 mmHg 77%
    09:00 +8°C° 0.1 mm 4 mps 742 mmHg 76%
    10:00 +8°C° 0 mm 4 mps 742 mmHg 72%
    11:00 +10°C° 0 mm 4 mps 742 mmHg 68%
    12:00 +11°C° 0 mm 4 mps 741 mmHg 64%
    13:00 +11°C° 0 mm 4 mps 741 mmHg 63%
    14:00 +12°C° 0 mm 3 mps 741 mmHg 62%
    15:00 +12°C° 0 mm 3 mps 740 mmHg 61%
    16:00 +12°C° 0 mm 2 mps 740 mmHg 63%
    17:00 +12°C° 0 mm 2 mps 740 mmHg 65%
    18:00 +12°C° 0 mm 1 mps 740 mmHg 67%
    19:00 +11°C° 0 mm 1 mps 740 mmHg 68%
    20:00 +11°C° 0 mm 1 mps 740 mmHg 70%
    21:00 +10°C° 0 mm 1 mps 740 mmHg 72%
    22:00 +10°C° 0 mm 1 mps 739 mmHg 75%
    23:00 +9°C° 0 mm 1 mps 739 mmHg 77%
    Show more